Weather History for Franklin, NC

Change the Weather History Date:

Thursday, October 13, 2011

  Actual Average (KTOC) Record (KTOC)
Temperature  
Mean Temperature 62 °F -  
Max Temperature 68 °F 75 °F 70 °F (2014)
Min Temperature 53 °F 51 °F 59 °F (2014)
Degree Days  
Heating Degree Days 4    
Growing Degree Days 12 (Base 50)    
Moisture  
Dew Point 55 °F    
Average Humidity 81    
Maximum Humidity 94    
Minimum Humidity 52    
Precipitation  
Precipitation 0.05 in - - ()
Sea Level Pressure  
Sea Level Pressure 29.70 in    
Wind  
Wind Speed 2 mph (East)    
Max Wind Speed 14 mph    
Max Gust Speed 25 mph    
Visibility 10 miles    
Events Rain    
Averages and records for this station are not official NWS values.
T = Trace of Precipitation, MM = Missing Value Source: NWS Daily Summary

Daily Weather History Graph

Daily Weather History Graph

Search for Another Location

Airport:

Trip Planner

Search our weather history database for the weather conditions in past years. The results will help you decide how hot, cold, wet, or windy it might be!

Date:

Astronomy

Oct. 13, 2011 Rise Set
Actual Time 7:37 AM EDT 7:01 PM EDT
Civil Twilight 7:12 AM EDT 7:26 PM EDT
Nautical Twilight 6:42 AM EDT 7:56 PM EDT
Astronomical Twilight 6:13 AM EDT 8:25 PM EDT
Moon 7:42 PM EDT (10/13) 9:03 AM EDT (10/13)
Length of Visible Light 12h 14m
Length of Day
11h 23m
Full, 98% of the Moon is Illuminated
Oct 13
Full
Oct 19
Last Quarter
Oct 26
New
Nov 2
First Quarter
Nov 10
Full

Hourly Weather History & Observations

Time (EDT) Temp. Dew Point Humidity Pressure Visibility Wind Dir Wind Speed Gust Speed Precip Events Conditions
12:15 AM 62.6 °F 59.0 °F 88% 29.82 in 10.0 mi East 4.6 mph - N/A   Unknown
12:35 AM 60.8 °F 59.0 °F 94% 29.81 in 10.0 mi Calm Calm - N/A   Unknown
12:55 AM 62.6 °F 59.0 °F 88% 29.80 in 10.0 mi Calm Calm - N/A   Unknown
1:15 AM 62.6 °F 59.0 °F 88% 29.80 in 10.0 mi Calm Calm - N/A   Unknown
1:35 AM 62.6 °F 57.2 °F 82% 29.80 in 10.0 mi East 3.5 mph - N/A   Unknown
1:55 AM 60.8 °F 57.2 °F 88% 29.78 in 10.0 mi Calm Calm - 0.01 in   Unknown
2:15 AM 60.8 °F 57.2 °F 88% 29.78 in 10.0 mi Calm Calm - N/A   Unknown
2:35 AM 59.0 °F 55.4 °F 88% 29.77 in 10.0 mi Calm Calm - N/A   Unknown
2:55 AM 60.8 °F 55.4 °F 82% 29.76 in 10.0 mi Calm Calm - N/A   Unknown
3:15 AM 59.0 °F 55.4 °F 88% 29.75 in 10.0 mi Calm Calm - N/A   Unknown
3:35 AM 59.0 °F 55.4 °F 88% 29.75 in 10.0 mi Calm Calm - N/A   Unknown
3:55 AM 60.8 °F 57.2 °F 88% 29.74 in 10.0 mi Calm Calm - N/A   Unknown
4:15 AM 60.8 °F 57.2 °F 88% 29.74 in 10.0 mi Calm Calm - N/A   Unknown
4:35 AM 60.8 °F 57.2 °F 88% 29.73 in 10.0 mi Calm Calm - N/A   Unknown
4:55 AM 59.0 °F 57.2 °F 94% 29.73 in 10.0 mi Calm Calm - 0.01 in   Unknown
5:15 AM 60.8 °F 57.2 °F 88% 29.73 in 10.0 mi Calm Calm - N/A Rain Light Rain
5:35 AM 60.8 °F 57.2 °F 88% 29.72 in 10.0 mi Calm Calm - N/A   Unknown
5:55 AM 60.8 °F 57.2 °F 88% 29.72 in 10.0 mi Calm Calm - N/A   Unknown
6:15 AM 60.8 °F 57.2 °F 88% 29.72 in 10.0 mi East 4.6 mph - N/A   Unknown
6:35 AM 60.8 °F 57.2 °F 88% 29.72 in 10.0 mi Calm Calm - N/A   Unknown
6:55 AM 60.8 °F 57.2 °F 88% 29.72 in 10.0 mi Calm Calm - N/A   Unknown
7:15 AM 60.8 °F 57.2 °F 88% 29.72 in 10.0 mi East 3.5 mph - N/A   Unknown
7:55 AM 60.8 °F 55.4 °F 82% 29.71 in 10.0 mi Calm Calm - N/A   Light Drizzle
8:15 AM 60.8 °F 55.4 °F 82% 29.71 in 10.0 mi Calm Calm - N/A   Unknown
8:35 AM 60.8 °F 55.4 °F 82% 29.71 in 10.0 mi East 3.5 mph - N/A   Unknown
8:55 AM 60.8 °F 55.4 °F 82% 29.71 in 10.0 mi Calm Calm - N/A Rain Light Rain
9:35 AM 60.8 °F 55.4 °F 82% 29.71 in 10.0 mi Calm Calm - N/A   Unknown
9:55 AM 62.6 °F 57.2 °F 82% 29.70 in 10.0 mi Calm Calm - N/A   Unknown
10:15 AM 62.6 °F 55.4 °F 77% 29.70 in 10.0 mi East 4.6 mph - N/A   Unknown
10:35 AM 62.6 °F 55.4 °F 77% 29.70 in 7.0 mi East 3.5 mph - N/A Rain Rain
10:55 AM 60.8 °F 57.2 °F 88% 29.69 in 7.0 mi Calm Calm - 0.01 in Rain Light Rain
11:15 AM 62.6 °F 55.4 °F 77% 29.69 in 7.0 mi East 3.5 mph - N/A Rain Light Rain
11:35 AM 60.8 °F 53.6 °F 77% 29.70 in 5.0 mi Calm Calm - N/A Rain Rain
11:55 AM 60.8 °F 55.4 °F 82% 29.70 in 10.0 mi Calm Calm - N/A   Unknown
12:15 PM 62.6 °F 55.4 °F 77% 29.69 in 10.0 mi East 3.5 mph - N/A   Unknown
12:35 PM 64.4 °F 55.4 °F 73% 29.68 in 10.0 mi East 3.5 mph - N/A Rain Light Rain
12:55 PM 62.6 °F 55.4 °F 77% 29.69 in 7.0 mi East 4.6 mph - N/A Rain Light Rain
1:15 PM 62.6 °F 57.2 °F 82% 29.68 in 10.0 mi East 4.6 mph - N/A   Unknown
1:35 PM 64.4 °F 55.4 °F 73% 29.67 in 10.0 mi East 5.8 mph - N/A   Unknown
1:55 PM 64.4 °F 55.4 °F 73% 29.66 in 10.0 mi Calm Calm - N/A   Unknown
2:15 PM 64.4 °F 55.4 °F 73% 29.66 in 10.0 mi Calm Calm - N/A   Unknown
2:35 PM 66.2 °F 51.8 °F 60% 29.65 in 10.0 mi East 4.6 mph - N/A   Unknown
2:55 PM 68.0 °F 51.8 °F 56% 29.64 in 10.0 mi East 8.1 mph - 0.01 in   Unknown
3:15 PM 66.2 °F 51.8 °F 60% 29.63 in 10.0 mi East 5.8 mph - N/A   Unknown
3:35 PM 68.0 °F 51.8 °F 56% 29.63 in 10.0 mi East 4.6 mph - N/A   Unknown
3:55 PM 68.0 °F 51.8 °F 56% 29.63 in 10.0 mi East 3.5 mph - N/A   Unknown
4:15 PM 68.0 °F 50.0 °F 52% 29.63 in 10.0 mi East 6.9 mph - N/A   Unknown
4:35 PM 64.4 °F 50.0 °F 59% 29.62 in 10.0 mi Calm Calm - N/A   Unknown
4:55 PM 60.8 °F 50.0 °F 68% 29.65 in 7.0 mi East 13.8 mph 25.3 mph N/A Rain Rain
5:15 PM 55.4 °F 51.8 °F 88% 29.66 in 7.0 mi East 3.5 mph - N/A Rain Rain
5:35 PM 57.2 °F 51.8 °F 82% 29.65 in 10.0 mi East 3.5 mph - N/A Rain Light Rain
5:55 PM 55.4 °F 51.8 °F 88% 29.66 in 10.0 mi East 3.5 mph - N/A Rain Light Rain
6:15 PM 55.4 °F 51.8 °F 88% 29.66 in 10.0 mi Calm Calm - 0.01 in Rain Light Rain
6:35 PM 55.4 °F 51.8 °F 88% 29.66 in 10.0 mi East 3.5 mph - 0.01 in   Unknown
6:55 PM 55.4 °F 51.8 °F 88% 29.66 in 10.0 mi Calm Calm - 0.01 in   Unknown
7:15 PM 55.4 °F 51.8 °F 88% 29.67 in 10.0 mi Calm Calm - N/A   Unknown
7:35 PM 53.6 °F 51.8 °F 94% 29.66 in 10.0 mi Calm Calm - N/A   Unknown
7:55 PM 53.6 °F 51.8 °F 94% 29.67 in 10.0 mi Calm Calm - N/A   Unknown
8:15 PM 53.6 °F 51.8 °F 94% 29.68 in 10.0 mi Calm Calm - N/A Rain Rain
8:35 PM 55.4 °F 51.8 °F 88% 29.68 in 5.0 mi Calm Calm - N/A Rain Rain
9:15 PM 53.6 °F 51.8 °F 94% 29.69 in 10.0 mi Calm Calm - N/A   Unknown
9:35 PM 53.6 °F 51.8 °F 94% 29.70 in 10.0 mi Calm Calm - N/A   Light Drizzle
10:15 PM 53.6 °F 51.8 °F 94% 29.71 in 7.0 mi Calm Calm - N/A   Unknown
10:35 PM 53.6 °F 51.8 °F 94% 29.70 in 10.0 mi Calm Calm - N/A   Unknown
10:55 PM 53.6 °F 51.8 °F 94% 29.70 in 10.0 mi Calm Calm - N/A   Unknown
11:15 PM 53.6 °F 51.8 °F 94% 29.71 in 10.0 mi Calm Calm - N/A   Unknown
11:35 PM 53.6 °F 51.8 °F 94% 29.71 in 10.0 mi Calm Calm - N/A   Unknown
11:55 PM 53.6 °F 51.8 °F 94% 29.71 in 10.0 mi Calm Calm - 0.01 in   Unknown